This demonstration page uses our WeatherBlox Daily Observations layout. Learn more.

Hourly Observations for October 15, 2020

Temp ( °F °C ) Dew Point ( °F °C ) Humidity (%) Winds ( mph kmh ) Pressure ( in mb ) Visibility ( mi km ) Precip ( " mm )
12:15 am 00:15 Clear 55 13 50 10 82 82 S 6 9 30.02 1017 10 16.0934 0 0
12:35 am 00:35 Clear 55 13 50 10 82 82 S 6 9 30.02 1017 10 16.0934 0 0
12:55 am 00:55 Clear 54 12 50 10 88 88 S 6 9 30.01 1016 10 16.0934 0 0
1:15 am 01:15 Clear 54 12 50 10 88 88 SSW 5 7 30.01 1016 10 16.0934 0 0
1:35 am 01:35 Clear 52 11 50 10 94 94 SSW 5 7 30.01 1016 10 16.0934 0 0
1:55 am 01:55 Clear 52 11 50 10 94 94 SSW 5 7 30.01 1016 10 16.0934 0 0
2:15 am 02:15 Clear 52 11 50 10 94 94 Calm 30.01 1016 10 16.0934 0 0
2:35 am 02:35 Clear 50 10 50 10 100 100 S 5 7 30.02 1016 10 16.0934 0 0
2:55 am 02:55 Clear 52 11 50 10 94 94 S 6 9 30.01 1016 10 16.0934 0 0
3:15 am 03:15 Clear 46 8 46 8 100 100 S 3 6 30.02 1017 10 16.0934 0 0
3:35 am 03:35 Clear 46 8 46 8 100 100 S 3 6 30.01 1016 10 16.0934 0 0
3:55 am 03:55 Clear 46 8 46 8 100 100 S 3 6 30.01 1016 10 16.0934 0 0
4:15 am 04:15 Clear 45 7 45 7 100 100 S 3 6 30.01 1016 10 16.0934 0 0
4:35 am 04:35 Clear 46 8 46 8 100 100 S 6 9 30.01 1016 10 16.0934 0 0
4:55 am 04:55 Clear 46 8 46 8 100 100 S 6 9 30.01 1016 10 16.0934 0 0
5:15 am 05:15 Clear 46 8 46 8 100 100 S 6 9 30.01 1016 10 16.0934 0 0
5:35 am 05:35 Clear 46 8 46 8 100 100 SSW 5 7 30.01 1016 10 16.0934 0 0
5:55 am 05:55 Clear 46 8 46 8 100 100 SSW 5 7 30.02 1017 10 16.0934 0 0
6:15 am 06:15 Clear 48 9 48 9 100 100 S 6 9 30.02 1017 10 16.0934 0 0
6:35 am 06:35 Clear 46 8 46 8 100 100 Calm 30.02 1017 10 16.0934 0 0
6:55 am 06:55 Clear 45 7 45 7 100 100 Calm 30.02 1017 10 16.0934 0 0
7:15 am 07:15 Clear 45 7 45 7 100 100 Calm 30.02 1017 10 16.0934 0 0
7:35 am 07:35 Sunny 45 7 45 7 100 100 Calm 30.02 1017 10 16.0934 0 0
7:55 am 07:55 Sunny 45 7 45 7 100 100 Calm 30.02 1017 10 16.0934 0 0
8:15 am 08:15 Sunny N/A N/A N/A S 5 7 N/A 10 16.0934 0 0
8:35 am 08:35 Sunny N/A N/A N/A Calm N/A 10 16.0934 0 0
8:55 am 08:55 Sunny 50 10 50 10 100 100 Calm 30.03 1017 10 16.0934 0 0
9:15 am 09:15 Sunny 52 11 52 11 100 100 S 9 15 30.01 1016 10 16.0934 0 0
9:35 am 09:35 Sunny 55 13 52 11 88 88 S 12 19 30.01 1016 10 16.0934 0 0
9:55 am 09:55 Sunny 55 13 52 11 88 88 SW 6 9 30.04 1017 10 16.0934 0 0
10:15 am 10:15 Sunny 59 15 54 12 82 82 S 5 7 30.03 1017 10 16.0934 0 0
10:35 am 10:35 Sunny 61 16 54 12 77 77 S 9 15 30.02 1016 10 16.0934 0 0
10:55 am 10:55 Sunny 61 16 54 12 77 77 S 9 15 30.02 1016 10 16.0934 0 0
11:15 am 11:15 Sunny 63 17 54 12 73 73 S 10 17 30 1016 10 16.0934 0 0
11:35 am 11:35 Sunny 64 18 55 13 73 73 S 10 17 29.98 1015 10 16.0934 0 0
11:55 am 11:55 Sunny 68 20 55 13 64 64 SSW 12 19 29.97 1015 10 16.0934 0 0
12:15 pm 12:15 Sunny N/A N/A N/A SSW 13 20 N/A 10 16.0934 0 0
12:35 pm 12:35 Sunny N/A N/A N/A S 14 22 N/A 10 16.0934 0 0
12:55 pm 12:55 Sunny 70 21 55 13 60 60 S 13 20 29.94 1014 10 16.0934 0 0
1:15 pm 13:15 Sunny N/A N/A N/A SSW 15 24 N/A 10 16.0934 0 0
1:35 pm 13:35 Sunny N/A N/A N/A S 14 22 N/A 10 16.0934 0 0
1:55 pm 13:55 Sunny N/A N/A N/A SW 9 15 N/A 10 16.0934 0 0
2:15 pm 14:15 Sunny N/A N/A N/A S 15 24 N/A 10 16.0934 0 0
2:35 pm 14:35 Sunny N/A N/A N/A SSW 15 24 N/A 10 16.0934 0 0
2:55 pm 14:55 Sunny N/A N/A N/A S 16 26 N/A 10 16.0934 0 0
3:15 pm 15:15 Sunny N/A N/A N/A S 18 30 N/A 10 16.0934 0 0
3:35 pm 15:35 Sunny N/A N/A N/A S 14 22 N/A 10 16.0934 0 0
3:55 pm 15:55 Sunny N/A N/A N/A SW 16 26 N/A 10 16.0934 0 0
4:15 pm 16:15 Sunny N/A N/A N/A SSW 12 19 N/A 10 16.0934 0 0
4:35 pm 16:35 Sunny N/A N/A N/A S 15 24 N/A 10 16.0934 0 0
4:55 pm 16:55 Sunny N/A N/A N/A S 16 26 N/A 10 16.0934 0 0
5:15 pm 17:15 Sunny N/A N/A N/A S 13 20 N/A 10 16.0934 0 0
5:35 pm 17:35 Partly Cloudy N/A N/A N/A S 9 15 N/A 10 16.0934 0 0
5:55 pm 17:55 Sunny N/A N/A N/A S 14 22 N/A 10 16.0934 0 0
6:15 pm 18:15 Sunny N/A N/A N/A S 9 15 N/A 10 16.0934 0 0
6:35 pm 18:35 Clear N/A N/A N/A S 8 13 N/A 10 16.0934 0 0
6:55 pm 18:55 Clear N/A N/A N/A S 8 13 N/A 10 16.0934 0 0
7:15 pm 19:15 Clear N/A N/A N/A S 7 11 N/A 10 16.0934 0 0
7:35 pm 19:35 Clear N/A N/A N/A S 5 7 N/A 10 16.0934 0 0
7:55 pm 19:55 Clear N/A N/A N/A S 7 11 N/A 10 16.0934 0 0
8:15 pm 20:15 Clear N/A N/A N/A S 8 13 N/A 10 16.0934 0 0
8:35 pm 20:35 Clear N/A N/A N/A S 8 13 N/A 10 16.0934 0 0
8:55 pm 20:55 Clear N/A N/A N/A S 8 13 N/A 10 16.0934 0 0
9:15 pm 21:15 Clear N/A N/A N/A S 8 13 N/A 10 16.0934 0 0
9:35 pm 21:35 Clear N/A N/A N/A S 8 13 N/A 10 16.0934 0 0
9:55 pm 21:55 Mostly Cloudy 64 18 61 16 88 88 S 8 13 29.93 1014 10 16.0934 0 0
10:15 pm 22:15 Partly Cloudy 63 17 61 16 94 94 S 7 11 29.95 1014 10 16.0934 0 0
10:35 pm 22:35 Clear 63 17 61 16 94 94 S 6 9 29.95 1014 10 16.0934 0 0
10:55 pm 22:55 Clear 63 17 61 16 94 94 S 6 9 29.95 1014 10 16.0934 0 0
11:15 pm 23:15 Partly Cloudy 63 17 61 16 94 94 SSW 3 6 29.95 1014 10 16.0934 0 0
11:35 pm 23:35 Partly Cloudy 61 16 61 16 100 100 Calm 29.96 1014 10 16.0934 0 0
11:55 pm 23:55 Partly Cloudy 61 16 61 16 100 100 S 3 6 29.95 1014 10 16.0934 0 0

Powered by AerisWeather